LCO1513 EDDF-GVAC

Flight info

Callsign LCO1513
Flight time N/A
Altitude 30000
Route SOBRA2L/18 SOBRA Y180 DIK UN857 TOLVU/N0470F310 DCT RAPOR DCT GIMER DCT ESTOC UT300 PON UN872 ERIGA UZ218 FUJTI DCT ATLEN DCT ABUPI DCT BUSEN DCT BEXAL DCT SAMAR/N0475F330 DCT YUSME DCT LIMAL/N0476F340 N873 IPERA DCT DIMKI DIMKI1S
Aircraft B763/H-SDE3FGHIM3RWXY/LB1

Departure

Time 2026-05-07 12:48
Airport Frankfurt Main Airport (EDDF)

Arrival

Time N/A
Airport Amílcar Cabral International Airport (GVAC)
Time Latitude Longitude Altitude Speed Heading
2026-05-07 12:14 50.02780 8.57564 348 ft 0 kts 160°
2026-05-07 12:35 50.02782 8.57562 348 ft 2 kts 160°
2026-05-07 12:35 50.02797 8.57553 348 ft 2 kts 160°
2026-05-07 12:35 50.02811 8.57545 348 ft 2 kts 160°
2026-05-07 12:35 50.02826 8.57537 348 ft 2 kts 160°
2026-05-07 12:36 50.02840 8.57529 348 ft 2 kts 160°
2026-05-07 12:36 50.02854 8.57521 348 ft 2 kts 160°
2026-05-07 12:36 50.02867 8.57517 348 ft 2 kts 199°
2026-05-07 12:36 50.02878 8.57529 348 ft 1 kts 243°
2026-05-07 12:37 50.02880 8.57537 348 ft 0 kts 250°
2026-05-07 12:38 50.02879 8.57531 348 ft 2 kts 250°
2026-05-07 12:39 50.02865 8.57474 348 ft 8 kts 250°
2026-05-07 12:39 50.02837 8.57360 347 ft 13 kts 249°
2026-05-07 12:39 50.02797 8.57197 347 ft 16 kts 253°
2026-05-07 12:39 50.02841 8.57081 347 ft 13 kts 337°
2026-05-07 12:40 50.02934 8.57028 347 ft 15 kts 340°
2026-05-07 12:40 50.03044 8.56964 346 ft 19 kts 340°
2026-05-07 12:40 50.03170 8.56891 346 ft 16 kts 340°
2026-05-07 12:40 50.03202 8.56873 346 ft 0 kts 340°
2026-05-07 12:41 50.03204 8.56872 346 ft 1 kts 340°
2026-05-07 12:41 50.03228 8.56858 346 ft 6 kts 340°
2026-05-07 12:41 50.03271 8.56818 345 ft 7 kts 294°
2026-05-07 12:42 50.03263 8.56735 346 ft 6 kts 251°
2026-05-07 12:42 50.03234 8.56612 346 ft 19 kts 250°
2026-05-07 12:42 50.03173 8.56350 346 ft 29 kts 250°
2026-05-07 12:42 50.03103 8.56051 346 ft 28 kts 250°
2026-05-07 12:43 50.03039 8.55777 345 ft 27 kts 249°
2026-05-07 12:43 50.02970 8.55498 344 ft 29 kts 249°
2026-05-07 12:43 50.02897 8.55189 342 ft 29 kts 250°
2026-05-07 12:43 50.02828 8.54890 341 ft 28 kts 250°
2026-05-07 12:44 50.02760 8.54601 340 ft 28 kts 250°
2026-05-07 12:44 50.02690 8.54306 339 ft 28 kts 250°
2026-05-07 12:44 50.02623 8.54014 337 ft 28 kts 250°
2026-05-07 12:44 50.02554 8.53722 335 ft 29 kts 250°
2026-05-07 12:45 50.02484 8.53431 334 ft 29 kts 250°
2026-05-07 12:45 50.02413 8.53136 333 ft 26 kts 250°
2026-05-07 12:45 50.02456 8.52902 332 ft 21 kts 307°
2026-05-07 12:45 50.02571 8.52827 332 ft 16 kts
2026-05-07 12:46 50.02686 8.52827 333 ft 16 kts 360°
2026-05-07 12:46 50.02803 8.52825 333 ft 18 kts 360°
2026-05-07 12:46 50.02925 8.52810 334 ft 12 kts 322°
2026-05-07 12:46 50.02942 8.52692 335 ft 12 kts 271°
2026-05-07 12:47 50.02898 8.52599 334 ft 14 kts 188°
2026-05-07 12:47 50.02732 8.52599 333 ft 41 kts 180°
2026-05-07 12:47 50.02271 8.52604 332 ft 90 kts 180°
2026-05-07 12:47 50.01518 8.52611 330 ft 131 kts 180°
2026-05-07 12:48 50.00470 8.52623 325 ft 168 kts 181°
2026-05-07 12:48 49.99258 8.52669 621 ft 180 kts 180°
2026-05-07 12:48 49.98013 8.52747 1157 ft 182 kts 179°
2026-05-07 12:48 49.96723 8.52838 1596 ft 190 kts 179°
2026-05-07 12:49 49.95367 8.52933 1924 ft 203 kts 179°
2026-05-07 12:49 49.93879 8.53036 2161 ft 225 kts 179°
2026-05-07 12:49 49.92324 8.53145 2593 ft 236 kts 179°